[[{"header":{"parameterUnit":"m.s-1","parameterCategory":1,"la1":30.2991,"la2":30.254,"lo1":-89.0895,"lo2":-89.0444,"dy":0.0017,"dx":0.0017,"nx":28,"ny":28,"refTime":"2024-10-05T21:00:00:Z","depth":0,"parameterNumber":2,"parameterNumberName":"U-component_of_WINDS"},"data":[0,0,0,0,0,0,0,0,0,0,0,0,0,0,0,0,0,0,0,0,0,0,0,0,0,0,0,0,0,0,0,0,0,0,0,0,0,0,0,0,0,0,0,0,0,0,0,0,0,0,0,0,0,0,0,0,0,0,-3.612,-3.6122,0,-3.626,-3.6262,-3.6263,-3.6167,-3.6163,-3.6158,-3.6154,-3.6306,-3.6314,-3.6322,0,0,0,0,0,0,0,0,0,0,0,0,0,-3.578,-3.5787,-3.612,-3.6122,-3.6124,-3.626,-3.6262,-3.6264,-3.6168,-3.6162,-3.6157,-3.6152,-3.6303,-3.6313,-3.6323,0,0,0,0,0,0,0,0,0,0,0,0,0,-3.5925,-3.5789,-3.612,-3.6092,-3.6091,-3.626,-3.6262,-3.6264,-3.6169,-3.6162,-3.6156,-3.615,-3.63,-3.6312,-3.6324,-3.653,0,0,-3.6361,-3.6366,0,0,0,0,0,0,0,0,-3.5917,-3.5937,-3.6094,-3.6094,-3.6093,-3.6189,-3.6197,-3.6354,-3.6171,-3.614,-3.6154,-3.6146,-3.6273,-3.6287,-3.6328,-3.6537,-3.6544,-3.6362,-3.637,-3.6375,-3.6378,0,0,0,0,0,0,0,-3.5907,-3.5931,-3.6176,-3.6097,-3.6096,-3.6076,-3.6089,-3.6227,-3.6242,-3.6142,-3.6135,-3.6152,-3.6271,-3.6316,-3.6331,-3.6546,-3.6362,-3.6373,-3.638,-3.6385,-3.6938,-3.6945,0,0,0,0,0,0,-3.5898,-3.5923,-3.6171,-3.618,-3.5987,-3.6087,-3.6102,-3.6165,-3.624,-3.6245,-3.6158,-3.6147,-3.6299,-3.6317,-3.6336,-3.6586,-3.6375,-3.6386,-3.6393,-3.693,-3.6939,-3.6947,0,0,0,0,0,0,-3.5891,-3.5921,-3.6166,-3.605,-3.6079,-3.61,-3.6172,-3.6171,-3.6216,-3.6252,-3.6255,-3.62,-3.6294,-3.6319,-3.6483,-3.659,-3.6392,-3.6403,-3.6922,-3.6933,-3.6943,-3.7086,0,0,0,0,0,0,-3.5882,-3.5919,-3.5995,-3.6052,-3.6086,-3.6308,-3.6178,-3.6179,-3.6236,-3.6224,-3.6293,-3.6298,-3.6291,-3.6466,-3.6495,-3.6603,-3.6412,-3.6912,-3.6927,-3.694,-3.7072,-3.71,-3.7125,0,0,0,0,0,-3.587,-3.603,-3.5999,-3.603,-3.6181,-3.6314,-3.6334,-3.632,-3.6245,-3.6324,-3.6348,-3.6296,-3.6573,-3.6483,-3.6516,-3.6629,-3.6906,-3.6923,-3.6939,-3.706,-3.7095,-3.7124,0,0,0,0,0,0,-3.5987,-3.6037,-3.6003,-3.6186,-3.6247,-3.6298,-3.6396,-3.6357,-3.6442,-3.6427,-3.641,-3.6426,-3.6599,-3.663,-3.6529,-3.6835,-3.6728,-3.6752,-3.6809,-3.6842,-3.6868,-3.6858,-3.6422,0,0,0,0,0,-3.6034,-3.6135,-3.6174,-3.6332,-3.6364,-3.6376,-3.6433,-3.6417,-3.648,-3.6506,-3.6541,-3.6607,-3.6709,-3.6777,-3.6872,-3.7075,-3.7092,-3.7169,-3.7196,-3.7217,-3.7239,-3.7354,-3.739,-3.7002,-3.7002,-3.7002,0,0,-3.6132,-3.6172,-3.6237,-3.6357,-3.6402,-3.6511,-3.6397,-3.6516,-3.6599,-3.6525,-3.6683,-3.6712,-3.6784,-3.697,-3.7053,-3.7001,-3.735,-3.7239,-3.7256,-3.7266,-3.7374,-3.7411,-3.7444,-3.7013,-3.7011,-3.7009,0,0,-3.6368,-3.6406,-3.6544,-3.6591,-3.666,-3.6667,-3.6701,-3.6758,-3.6774,-3.6932,-3.688,-3.6979,-3.7154,-3.7209,-3.726,-3.752,-3.7478,-3.7552,-3.7692,-3.7803,-3.7834,-3.7861,-3.7958,-3.7992,-3.7573,-3.7574,-3.7574,0,-3.6482,-3.6641,-3.662,-3.6744,-3.6801,-3.6737,-3.6879,-3.6927,-3.7025,-3.7067,-3.7006,-3.7227,-3.7271,-3.7471,-3.7535,-3.7577,-3.7618,-3.7545,-3.7831,-3.7858,-3.7883,-3.7975,-3.8011,-3.7582,-3.7581,-3.7581,-3.758,0,-3.6781,-3.6892,-3.6996,-3.709,-3.7158,-3.7291,-3.7294,-3.7366,-3.7345,-3.736,-3.7524,-3.7575,-3.7682,-3.7728,-3.7709,-3.7927,-3.7893,-3.7832,-3.7724,-3.7929,-3.8016,-3.805,-3.7595,-3.7592,-3.7589,-3.7587,0,0,-3.7093,-3.7176,-3.7215,-3.7259,-3.7332,-3.7419,-3.7551,-3.7653,-3.7717,-3.7788,-3.7901,-3.8052,-3.7997,-3.8055,-3.8043,-3.814,-3.8349,-3.8068,-3.807,-3.8122,-3.8597,-3.8645,-3.8685,-3.832,-3.8326,-3.8332,-3.8592,0,-3.7335,-3.7561,-3.7549,-3.7763,-3.7869,-3.7812,-3.7927,-3.7987,-3.8005,-3.81,-3.8121,-3.823,-3.8147,-3.8182,-3.8276,-3.8303,-3.8445,-3.8284,-3.8429,-3.8435,-3.8415,-3.873,-3.8779,-3.9023,-3.8626,-3.8631,-3.8635,0,-3.7647,-3.7727,-3.7952,-3.8013,-3.8057,-3.816,-3.8255,-3.8345,-3.8414,-3.842,-3.8487,-3.8459,-3.8597,-3.8485,-3.8677,-3.8569,-3.8628,-3.8651,-3.866,-3.8675,-3.8549,-3.8757,-3.9099,-3.9137,-3.8688,-3.8683,-3.868,0,-3.7857,-3.8022,-3.8178,-3.8217,-3.8291,-3.8366,-3.8401,-3.8462,-3.8526,-3.861,-3.8652,-3.8752,-3.8808,-3.8888,-3.889,-3.8807,-3.9087,-3.8973,-3.91,-3.9101,-3.9163,-3.916,-3.9523,-3.9197,-3.9196,-3.9195,-3.9195,0,-3.813,-3.8271,-3.8274,-3.8371,-3.8528,-3.8514,-3.8671,-3.8699,-3.8755,-3.8859,-3.8816,-3.8916,-3.8911,-3.9014,-3.9016,-3.9178,-3.9203,-3.9215,-3.9215,-3.9221,-3.922,-3.9261,-3.9245,-3.9205,-3.9203,-3.9201,-3.9199,0,-3.8392,-3.8399,-3.8567,-3.8623,-3.8641,-3.8755,-3.8805,-3.8899,-3.8913,-3.9046,-3.9077,-3.9102,-3.922,-3.923,-3.9367,-3.937,-3.9567,-3.9547,-3.9543,-3.9541,-3.9669,-3.9658,-4.0074,-4.0129,-3.9764,-3.9767,-3.977,0,-3.8567,-3.8674,-3.8742,-3.8807,-3.8846,-3.8952,-3.9017,-3.9009,-3.9079,-3.9167,-3.9252,-3.9366,-3.9456,-3.9649,-3.9682,-3.9789,-3.9773,-3.9911,-3.9789,-3.9793,-3.9779,-3.9774,-3.9787,-3.9936,-3.994,-3.9943,-3.9946,0,-3.8878,-3.8877,-3.897,-3.9067,-3.9146,-3.9222,-3.9293,-3.935,-3.935,-3.9432,-3.9552,-3.9622,-3.9763,-3.9879,-3.9984,-4.0023,-3.9988,-3.9984,-4.002,-4.0028,-4.0023,-4.0031,-3.9612,-3.9975,-3.9972,-3.997,-3.9968,-3.9967,-3.9104,-3.9198,-3.9261,-3.9368,-3.9421,-3.9489,-3.9581,-3.9608,-3.9706,-3.9819,-3.9809,-3.9943,-4.0013,-4.0149,-4.0198,-4.0305,-4.0259,-4.031,-4.0323,-4.0337,-4.0352,-4.0004,-4.0324,-4.0323,-4.0322,-4.0322,-4.0321,0,-3.9416,-3.9454,-3.9552,-3.9653,-3.9739,-3.9694,-3.9771,-3.9847,-3.9965,-4.0032,-4.0122,-4.0263,-4.0375,-4.0418,-4.0529,-4.0607,-4.0594,-4.0637,-4.0633,-4.0644,-4.0385,-4.0344,-4.0646,-4.0646,-4.0646,-4.0646,-4.0646,-4.0646,-3.9588,-3.9746,-3.9753,-3.9938,-3.9976,-4.0105,-4.0154,-4.0219,-4.0272,-4.043,-4.0523,-4.0548,-4.0608,-4.0723,-4.0826,-4.0836,-4.0881,-4.0932,-4.0936,-4.0694,-4.0661,-4.063,-4.0592,-4.0941,-4.0942,-4.1186,-4.1188,-4.119]},{"header":{"parameterUnit":"m.s-1","parameterCategory":1,"la1":30.2991,"la2":30.254,"lo1":-89.0895,"lo2":-89.0444,"dy":0.0017,"dx":0.0017,"nx":28,"ny":28,"refTime":"2024-10-05T21:00:00:Z","depth":0,"parameterNumber":3,"parameterNumberName":"V-component_of_WINDS"},"data":[0,0,0,0,0,0,0,0,0,0,0,0,0,0,0,0,0,0,0,0,0,0,0,0,0,0,0,0,0,0,0,0,0,0,0,0,0,0,0,0,0,0,0,0,0,0,0,0,0,0,0,0,0,0,0,0,0,0,0.4748,0.4748,0,0.4779,0.4779,0.4779,0.4799,0.4799,0.4799,0.4799,0.4829,0.483,0.483,0,0,0,0,0,0,0,0,0,0,0,0,0,0.4706,0.4706,0.4748,0.4748,0.4749,0.4778,0.4779,0.4779,0.4799,0.4799,0.4799,0.4799,0.4829,0.483,0.483,0,0,0,0,0,0,0,0,0,0,0,0,0,0.4729,0.4707,0.4748,0.4762,0.4764,0.4778,0.4779,0.4779,0.4799,0.4799,0.4799,0.4799,0.4829,0.483,0.4831,0.4833,0,0,0.4834,0.4834,0,0,0,0,0,0,0,0,0.4728,0.473,0.476,0.4761,0.4763,0.4785,0.4775,0.4797,0.4799,0.4785,0.4799,0.48,0.4814,0.4816,0.4822,0.4834,0.4836,0.4834,0.4834,0.4835,0.4835,0,0,0,0,0,0,0,0.4726,0.4729,0.476,0.476,0.4762,0.4767,0.477,0.4779,0.4798,0.4787,0.4788,0.4792,0.4815,0.4821,0.4822,0.4836,0.4834,0.4835,0.4835,0.4836,0.4853,0.4853,0,0,0,0,0,0,0.4722,0.4728,0.4759,0.4761,0.4745,0.4767,0.4771,0.4778,0.4798,0.4802,0.4791,0.4792,0.4819,0.4821,0.4824,0.4828,0.4835,0.4836,0.4836,0.4853,0.4853,0.4853,0,0,0,0,0,0,0.4721,0.4725,0.4758,0.4745,0.4749,0.4768,0.4775,0.4778,0.4784,0.4802,0.4805,0.4794,0.4819,0.4822,0.4831,0.4829,0.4836,0.4837,0.4853,0.4853,0.4853,0.4837,0,0,0,0,0,0,0.472,0.4724,0.4726,0.4745,0.475,0.4764,0.4775,0.4779,0.4786,0.4787,0.4805,0.4808,0.4819,0.4829,0.4832,0.4831,0.4838,0.4853,0.4853,0.4853,0.4837,0.4836,0.4835,0,0,0,0,0,0.4718,0.4719,0.4725,0.4729,0.4752,0.4764,0.4767,0.4781,0.4786,0.4787,0.4799,0.4807,0.4829,0.483,0.4833,0.4832,0.4854,0.4853,0.4853,0.4838,0.4836,0.4835,0,0,0,0,0,0,0.4698,0.4722,0.4729,0.4736,0.4748,0.4768,0.4769,0.4779,0.4789,0.479,0.4806,0.481,0.4817,0.4826,0.4826,0.4836,0.4843,0.4843,0.483,0.4829,0.4827,0.4825,0.4839,0,0,0,0,0,0.4695,0.4704,0.4724,0.4728,0.4734,0.4751,0.4756,0.4766,0.4779,0.4784,0.4796,0.4808,0.4818,0.4824,0.4834,0.4839,0.4843,0.484,0.4839,0.4838,0.4838,0.4842,0.4841,0.4852,0.4852,0.4852,0,0,0.4687,0.4701,0.4706,0.4724,0.4735,0.4743,0.4755,0.4763,0.4769,0.4785,0.4794,0.4804,0.4818,0.4825,0.4829,0.4833,0.4836,0.4837,0.4836,0.4837,0.4841,0.484,0.4839,0.4852,0.4852,0.4852,0,0,0.4678,0.469,0.4695,0.4705,0.4722,0.4733,0.4734,0.4753,0.476,0.477,0.4782,0.479,0.4806,0.4816,0.4823,0.482,0.4828,0.4822,0.4815,0.4819,0.4818,0.4817,0.4816,0.4815,0.4822,0.4822,0.4822,0,0.4666,0.468,0.4696,0.4704,0.4712,0.4728,0.4733,0.4743,0.4761,0.4766,0.477,0.4791,0.4802,0.4812,0.4811,0.4817,0.4819,0.482,0.4817,0.4816,0.4816,0.4815,0.4814,0.4821,0.4821,0.4822,0.4822,0,0.4665,0.4674,0.4676,0.4695,0.4703,0.4709,0.4726,0.4733,0.4742,0.4753,0.4763,0.4777,0.479,0.4794,0.4802,0.4805,0.4807,0.4814,0.482,0.4814,0.4813,0.4812,0.482,0.482,0.4821,0.4821,0,0,0.4642,0.4671,0.4671,0.468,0.47,0.4707,0.4715,0.4728,0.4734,0.4746,0.4753,0.4767,0.4774,0.4782,0.4792,0.4796,0.4792,0.4802,0.4803,0.48,0.4796,0.479,0.479,0.4798,0.4798,0.4798,0.4795,0,0.4635,0.465,0.4665,0.4674,0.4683,0.47,0.4707,0.4719,0.473,0.4739,0.4752,0.4761,0.477,0.4775,0.4779,0.4791,0.4791,0.4792,0.4804,0.4804,0.4799,0.4789,0.4783,0.4779,0.4795,0.4795,0.4795,0,0.4629,0.4641,0.4652,0.4672,0.4676,0.4682,0.4696,0.4705,0.472,0.4728,0.4738,0.475,0.4758,0.4765,0.4777,0.4778,0.4784,0.4791,0.4791,0.4792,0.4798,0.4789,0.4778,0.4777,0.4794,0.4794,0.4794,0,0.461,0.463,0.4639,0.4646,0.467,0.4674,0.4684,0.47,0.4707,0.472,0.4725,0.4739,0.4746,0.4756,0.4771,0.4774,0.4782,0.4789,0.4788,0.4788,0.4788,0.4788,0.4777,0.4793,0.4793,0.4793,0.4793,0,0.4601,0.4606,0.4632,0.4637,0.4644,0.4662,0.4668,0.468,0.4694,0.4702,0.4717,0.4724,0.4744,0.4753,0.4765,0.4774,0.4777,0.4783,0.4786,0.4781,0.4781,0.4785,0.4785,0.4793,0.4793,0.4793,0.4793,0,0.4581,0.4598,0.4609,0.4631,0.4637,0.4641,0.466,0.4666,0.4679,0.4689,0.4692,0.4712,0.4724,0.474,0.4757,0.4765,0.4772,0.4777,0.4767,0.4769,0.4767,0.4766,0.4758,0.4757,0.4774,0.4774,0.4774,0,0.4573,0.4577,0.4601,0.4608,0.4618,0.4628,0.4637,0.4655,0.4663,0.4682,0.4686,0.4699,0.4711,0.473,0.4745,0.4759,0.4764,0.476,0.4766,0.4761,0.4763,0.4762,0.4763,0.4758,0.4758,0.4757,0.4757,0,0.4557,0.4565,0.4577,0.4592,0.4602,0.4615,0.4628,0.4633,0.4655,0.4663,0.4676,0.4685,0.4703,0.4717,0.4732,0.4743,0.4753,0.4756,0.4756,0.4751,0.4745,0.4748,0.4763,0.4755,0.4755,0.4756,0.4756,0.4756,0.4542,0.4547,0.4565,0.4578,0.4591,0.4603,0.461,0.4625,0.4636,0.4653,0.4663,0.4676,0.4692,0.4715,0.4725,0.4735,0.4739,0.474,0.474,0.4739,0.4738,0.4744,0.4738,0.4738,0.4738,0.4738,0.4738,0,0.4526,0.4539,0.4551,0.457,0.458,0.4591,0.4607,0.4615,0.4626,0.4641,0.4653,0.4668,0.4682,0.4699,0.4714,0.4719,0.4724,0.4722,0.4721,0.4724,0.4733,0.4731,0.4717,0.4717,0.4717,0.4717,0.4717,0.4717,0.4519,0.4529,0.454,0.4557,0.457,0.4583,0.4591,0.4603,0.4615,0.4632,0.4644,0.4655,0.4672,0.4688,0.4701,0.4706,0.471,0.4706,0.4713,0.4721,0.4723,0.4724,0.4723,0.4707,0.4707,0.4702,0.4702,0.4702]}]]